Location: Newark
(27.9675°N, 86.8869°E)
Time: 21:10:30
(UTC+00:00)

Vanguard 3 - Pass Details

Date: 27 October 2019
Orbit: 508 x 3263 km, 33.3° (Epoch: 11 November)

Event Time Altitude Azimuth Distance (km) Brightness Sun altitude
Rises 19:24:40 0° 290° (WNW) 2,676 - -64.5°
Reaches altitude 10° 19:26:52 10° 293° (WNW) 1,722 - -64.1°
Maximum altitude 19:30:31 71° 18° (NNE) 550 - -63.4°
Drops below altitude 10° 19:34:40 10° 103° (ESE) 1,956 - -62.6°
Sets 19:37:20 0° 105° (ESE) 3,092 - -62.0°
